Location: Bryzozowice
(50.3667°N, 18.9667°E)
Time: 04:36:58
(UTC+00:00)

ATLAS CENTAUR R/B - Pass Details

Date: 24 January 2020
Orbit: 461 x 687 km, 64.6° (Epoch: 12 February)

Event Time Altitude Azimuth Distance (km) Brightness Sun altitude
Rises 17:24:21 0° 318° (NW) 2,785 5.4 -19.1°
Reaches altitude 10° 17:26:40 10° 317° (NW) 1,843 4.5 -19.5°
Maximum altitude 17:30:47 78° 233° (SW) 542 1.3 -20.1°
Enters shadow 17:32:09 39° 152° (SSE) 793 1.9 -20.3°
